CZ-6A DEB, 54340

Orbit data source: Space-Track

CZ-6A DEB, 54340 is space debris in SSO originally from a launch on Fri, 11 Nov 2022 UTC launched from the Taiyaun Space Center, China (TSC). Debris objects in space refer to the collection of defunct objects orbiting the Earth. Examples of debris include non-operational satellites, rocket bodies, and fragments generated from explosions, collisions, or faulty payload assembly.

Loading next visibility...
Identifier
54340, 2022-151CK
Orbit
SSO
Country
Flag of CNCN / PRC
Related business
Manufacturer
SAST
Mission
Spacecraft
Bus & Motor
Unknown
Mass
Unknown
Launch date (UTC)
2022-11-11 (4 years ago)
Launch vehicle
Unknown
Launch site
Taiyaun Space Center, China (TSC)
Object type
Payload
Rocket body
Debris
Shape & HBR
Unknown shape, 0.1 m
Radar Cross Section
Small (<0.1 m²)

Expand to show TLE details & history
Last TLE update: 22 hours ago

TLE from 22 hours ago
0 CZ-6A DEB
1 54340U 22151CK  26263.52254450  .00004813  00000-0  59630-3 0  9995
2 54340  98.5930   1.1912 0096362 221.2024 138.1885 14.79967153205581
Epoch: 2026-09-20T12:32Z
TLE epoch observation values (Epoch: 2026-09-20T12:32:27.844Z)
Latitude
-0.00002°
Longitude
173.65967°
Altitude
683.055 km
Speed
7.488 km/s
True Right ascension
00h 04m 45s
True Declination
0° 00' 00"
Sunlit
Object was in full shadow at epoch
Visualization orbit readout
Latitude
Unknown
Longitude
Unknown
Altitude
Unknown
Speed
Unknown
Apparent Right ascension
Unknown
Apparent Declination
Unknown
Sunlit
N/A
Visualization observer readout
Local Sidereal Time
04:02:53
Azimuth
Unknown
Elevation
Unknown
Doppler factor
Unknown
Orbital elements
Apogee altitude
693.999 km
Perigee altitude
559.003 km
Semi-major axis
7,004.638 km
Eccentricity
0.00964
Inclination
98.593°
RAAN
1.1912°
Arg. of periapsis
221.2024°
True anomaly
138.9181°
Mean anomaly
138.1885°
Eccentric anomaly
138.55395°
Mean motion
3.70224 °/min
Orbital period
97.24 mins
BSTAR
0.0005963
Loading maneuver chart data...
Computing Atmospheric mass density...
Loading historical data...
Loading historical data...
Loading historical data...
Loading historical data...
Loading historical data...
Loading historical data...
Loading historical data...

Documentation

Showing up to 5 results
|